Location: Deuil
(48.9767°N, 2.3272°E)
Time: 12:13:52
(UTC+00:00)

Cosmos 2228 - Pass Details

Date: 30 May 2022
Orbit: 586 x 617 km, 82.5° (Epoch: 01 July)

Event Time Altitude Azimuth Distance (km) Brightness Sun altitude
Rises 01:06:04 0° 357° (N) 2,890 7.8 -17.2°
Reaches altitude 10° 01:08:31 10° 8° (N) 1,976 6.9 -17.0°
Maximum altitude 01:12:27 32° 72° (ENE) 1,051 4.6 -16.8°
Drops below altitude 10° 01:16:19 10° 136° (SE) 1,945 5.4 -16.6°
Enters shadow 01:16:45 - 139° (SE) 2,101 5.5 -16.6°
